TimeCDT,TemperatureF,Dew PointF,Humidity,Sea Level PressureIn,VisibilityMPH,Wind Direction,Wind SpeedMPH,Gust SpeedMPH,PrecipitationIn,Events,Conditions,WindDirDegrees,DateUTC
12:56 AM,54.0,44.1,69,29.72,10.0,NW,9.2,-,N/A,,Clear,320,2012-10-14 05:56:00
1:56 AM,54.0,43.0,66,29.73,10.0,NW,8.1,-,N/A,,Clear,320,2012-10-14 06:56:00
2:56 AM,53.1,43.0,69,29.75,10.0,WNW,8.1,-,N/A,,Scattered Clouds,300,2012-10-14 07:56:00
3:56 AM,54.0,39.9,59,29.75,10.0,NNW,13.8,-,N/A,,Mostly Cloudy,330,2012-10-14 08:56:00
4:56 AM,51.1,37.9,61,29.79,10.0,NNW,15.0,-,N/A,,Clear,330,2012-10-14 09:56:00
5:56 AM,48.9,37.9,66,29.83,10.0,NW,11.5,-,N/A,,Clear,320,2012-10-14 10:56:00
6:56 AM,48.0,37.0,66,29.87,10.0,NW,13.8,21.9,N/A,,Clear,320,2012-10-14 11:56:00
7:56 AM,46.9,35.1,63,29.90,10.0,NW,13.8,-,N/A,,Clear,310,2012-10-14 12:56:00
8:56 AM,48.9,35.1,59,29.91,10.0,NW,12.7,-,N/A,,Clear,320,2012-10-14 13:56:00
9:56 AM,52.0,34.0,50,29.93,10.0,NNW,18.4,-,N/A,,Clear,340,2012-10-14 14:56:00
10:56 AM,55.0,32.0,42,29.94,10.0,NNW,16.1,-,N/A,,Clear,340,2012-10-14 15:56:00
11:56 AM,59.0,33.1,38,29.96,10.0,NNW,15.0,23.0,N/A,,Clear,340,2012-10-14 16:56:00
12:56 PM,61.0,34.0,36,29.95,10.0,NW,17.3,-,N/A,,Clear,320,2012-10-14 17:56:00
1:56 PM,63.0,34.0,34,29.96,10.0,NW,18.4,25.3,N/A,,Clear,320,2012-10-14 18:56:00
2:56 PM,64.9,33.1,31,29.94,10.0,NW,19.6,25.3,N/A,,Clear,320,2012-10-14 19:56:00
3:56 PM,68.0,34.0,28,29.94,10.0,NW,12.7,-,N/A,,Clear,310,2012-10-14 20:56:00
4:56 PM,66.9,34.0,30,29.94,10.0,NNW,15.0,-,N/A,,Clear,340,2012-10-14 21:56:00
5:56 PM,64.9,34.0,32,29.95,10.0,NW,8.1,-,N/A,,Clear,320,2012-10-14 22:56:00
6:56 PM,59.0,35.1,41,29.96,10.0,NNW,4.6,-,N/A,,Clear,340,2012-10-14 23:56:00
7:56 PM,53.1,36.0,52,29.98,10.0,Calm,Calm,-,N/A,,Clear,0,2012-10-15 00:56:00
8:56 PM,46.9,37.0,68,29.98,10.0,SW,4.6,-,N/A,,Clear,220,2012-10-15 01:56:00
9:56 PM,46.0,37.0,71,29.98,10.0,Calm,Calm,-,N/A,,Clear,0,2012-10-15 02:56:00
10:56 PM,43.0,36.0,76,29.99,10.0,Calm,Calm,-,N/A,,Clear,0,2012-10-15 03:56:00